{"data":{"norad_id":69866,"epoch":"2026-09-19T19:44:28.788288Z","epoch_age_seconds":80192,"freshness":"FRESH","line1":"1 69866U 26155U   26262.82255542 -.01804373  00000+0 -29100+1 0  9994","line2":"2 69866  89.0086  53.7411 0034788  16.7510 343.4782 13.52496755 10659","mean_motion":13.52496755,"eccentricity":0.0034788,"inclination_deg":89.0086,"raan_deg":53.7411,"arg_perigee_deg":16.751,"mean_anomaly_deg":343.4782,"bstar":-2.91,"rev_number":1065,"period_min":106.46975637291,"perigee_km":1037.2000489861,"apogee_km":1088.9731061494,"semimajor_km":7441.2235775678,"source":"CELESTRAK","updated_at":"2026-09-20T09:00:25.161569Z"}}